Wind_Speed
3 4 4 4 4 4 4 4 4 4 4 4 4 3 3 4 4 4 4 4 4 3 3 2 2 1 1 1 1 1 2 2 3 4 4 5 5 6 7 7 8 8 9
1 3 3 3 3 3 3 3 3 2 2 2 3 3 3 3 3 3 3 3 2 2 2 1 2 1 0 1 2 2 2 3 3 4 5 6 6 7 8 8 8 9 9
1 0 1 2 2 2 2 1 2 2 1 1 1 2 3 2 2 2 2 2 1 1 1 1 1 1 2 2 2 3 4 4 4 5 5 6 6 7 8 8 8 9 10
2 1 1 1 1 1 1 1 1 1 1 1 1 2 1 0 1 1 2 2 2 2 2 2 2 3 3 3 3 3 4 4 5 6 6 7 7 8 8 9 9 10 11
3 3 3 2 2 2 2 1 1 1 1 1 0 1 2 2 2 2 2 3 3 3 4 4 4 4 5 5 5 5 6 5 6 7 7 8 8 8 9 10 10 11 12
5 5 4 4 4 3 3 3 2 3 3 2 2 3 3 3 3 3 4 4 4 5 6 6 6 6 6 6 7 7 7 7 7 8 8 8 9 9 10 10 11 12 13
6 6 6 5 5 5 4 5 5 5 4 4 4 5 5 5 5 5 5 6 6 7 7 7 7 7 8 8 8 8 9 8 8 8 8 9 10 11 12 12 13 14 15
8 8 8 8 8 7 7 6 6 6 6 7 7 7 8 7 7 7 7 8 8 8 8 8 8 8 9 10 10 10 10 9 10 10 10 10 11 12 13 14 15 16 17
10 9 9 10 10 9 9 8 9 8 8 8 8 8 9 9 9 9 9 9 9 9 9 9 9 9 9 10 10 10 10 10 11 11 11 12 13 13 15 15 16 17 18
12 12 11 11 11 11 10 10 10 10 10 10 10 10 11 11 10 10 10 11 11 11 11 10 11 10 11 11 12 11 12 12 13 13 13 14 15 15 16 17 18 19 19
14 14 14 13 13 13 12 12 12 12 11 11 12 12 12 12 12 13 13 12 12 12 12 12 12 12 13 13 13 14 14 15 15 15 16 16 17 17 17 18 19 20 21
16 16 16 15 14 14 13 13 14 14 14 14 14 14 14 13 13 14 14 14 14 13 14 14 14 14 15 15 16 16 16 16 16 17 18 18 19 19 19 20 21 22 22
17 17 17 17 17 16 15 15 16 16 16 15 16 16 15 15 14 15 14 14 14 14 15 15 15 16 17 17 18 19 18 18 19 19 20 20 21 22 22 23 23 24 25
19 19 19 19 19 19 18 18 18 18 18 17 17 17 16 16 16 16 16 16 17 17 18 18 18 18 19 20 20 20 19 20 21 22 22 23 24 25 25 25 26 27 27
21 21 21 21 20 20 20 20 21 21 20 20 19 19 19 18 18 18 18 18 19 19 20 20 21 21 22 22 23 23 22 22 23 24 24 25 26 27 27 28 28 28 28
23 22 22 22 22 22 23 23 23 23 23 22 21 21 21 20 20 20 20 20 20 22 22 23 23 24 24 24 25 25 24 24 25 26 26 27 27 28 28 29 29 29 29
24 24 24 24 24 24 25 25 25 25 24 24 23 22 22 22 22 22 22 22 23 24 25 25 26 26 26 26 27 27 26 26 27 27 28 29 29 29 29 30 30 29 29
26 26 26 26 26 26 26 27 26 26 26 25 24 24 24 24 24 25 25 25 26 27 27 27 28 28 28 29 28 28 29 30 30 30 31 31 31 31 31 31 31 31 30
27 28 28 28 28 28 28 28 28 27 27 27 26 26 26 27 27 28 29 28 28 29 29 29 29 30 30 31 30 31 32 32 32 32 33 34 34 33 33 32 32 32 32
29 29 29 30 30 30 30 30 29 29 29 29 29 29 29 29 30 30 30 30 31 31 31 32 32 32 32 32 32 32 33 33 33 34 34 35 34 34 33 33 33 33 33
31 31 31 31 32 32 32 32 32 32 32 31 32 31 31 31 31 31 32 33 33 34 33 33 33 33 34 34 33 34 34 34 34 34 35 35 35 34 34 34 34 33 34
33 33 33 33 33 34 34 34 34 34 34 34 34 34 34 34 34 34 34 35 35 35 35 34 34 34 35 35 35 35 35 35 36 36 36 36 35 35 35 35 35 34 34
34 35 35 35 35 35 36 36 36 36 36 36 36 35 35 36 36 36 36 36 37 37 36 36 35 35 35 35 36 36 36 36 37 37 37 36 36 36 35 35 35 36 36
35 35 35 35 36 36 36 36 36 36 36 37 36 36 37 37 37 36 37 38 38 38 37 37 36 35 35 36 36 37 37 38 38 38 38 37 37 37 36 36 37 37 36
34 34 34 35 35 36 36 36 36 36 37 37 37 37 37 37 37 38 38 38 38 37 36 36 37 37 37 37 38 38 38 38 38 38 38 38 37 37 37 37 37 36 36
34 34 35 35 36 36 36 36 36 36 36 36 36 37 37 37 37 38 38 38 38 38 37 37 38 38 38 39 39 39 39 38 38 39 39 38 38 38 38 37 37 37 37
Wind_Direction
76 76 82 97 106 109 107 102 103 113 108 100 104 113 125 125 119 126 129 133 138 139 133 128 142 131 136 194 267 299 286 283 287 288 292 303 313 313 313 313 311 314 319
53 66 74 86 103 112 111 98 100 108 108 100 104 120 124 122 119 129 133 135 143 144 151 152 153 160 232 263 266 284 278 281 292 295 296 301 307 305 307 310 311 317 321
311 47 62 56 73 92 95 96 104 97 105 109 136 127 114 112 127 150 156 161 183 197 208 221 209 225 254 261 264 261 279 282 281 280 286 292 298 307 305 307 314 317 318
270 275 281 332 344 355 16 33 74 87 89 78 157 158 146 146 212 217 218 217 233 259 279 286 282 275 273 275 278 274 280 288 281 281 284 287 295 304 306 308 312 320 321
267 267 265 278 285 285 294 296 317 321 332 347 225 218 234 249 261 266 259 255 262 276 287 288 287 284 279 276 277 286 288 295 294 291 291 293 298 305 309 310 312 314 316
259 260 262 266 272 275 278 283 292 294 293 294 273 256 256 257 262 272 270 271 277 283 287 289 284 283 282 276 279 281 285 291 293 292 293 297 301 301 303 307 309 310 312
260 261 262 261 261 268 269 271 275 282 280 279 280 274 273 268 266 274 275 279 283 285 288 288 282 283 286 284 284 284 287 287 290 292 295 297 300 300 299 301 305 306 308
258 262 262 262 262 264 266 268 271 275 275 270 275 277 276 272 272 275 277 280 284 286 284 286 284 283 285 286 283 282 286 286 288 289 294 298 300 299 301 303 305 306 308
256 263 268 266 264 263 265 266 268 270 273 271 274 276 276 273 271 273 276 277 282 286 288 287 285 283 285 289 291 283 285 287 286 286 289 293 298 300 301 303 305 307 309
255 259 265 265 263 264 266 268 268 267 269 272 273 277 278 275 273 273 273 274 277 279 281 283 283 284 286 289 289 288 285 285 285 285 285 290 294 297 298 299 301 303 306
256 257 260 259 260 262 265 268 268 267 270 272 273 275 276 275 273 272 273 274 278 279 280 284 285 288 287 290 291 293 291 289 286 285 286 289 292 295 296 296 298 300 302
258 258 258 259 259 262 265 267 267 268 270 273 274 275 273 272 274 276 275 274 278 284 285 287 289 290 291 292 293 294 291 288 286 286 288 290 292 292 293 295 296 297 298
257 257 259 260 262 263 264 266 267 267 269 272 274 275 274 271 272 276 276 277 282 286 287 287 290 291 293 293 293 294 290 287 285 285 288 289 292 292 292 293 295 296 297
255 256 259 261 263 264 265 266 266 267 268 271 274 274 275 273 274 276 277 279 282 283 285 286 288 291 292 292 292 293 291 289 288 288 288 288 289 291 292 293 293 293 292
253 255 257 259 261 263 265 266 267 269 270 270 273 275 274 275 273 275 278 280 281 282 283 285 286 288 290 290 290 291 289 289 289 289 290 290 291 293 293 292 294 293 292
253 253 255 258 260 262 263 265 268 271 272 274 276 277 277 277 275 275 277 280 281 281 282 283 284 286 287 287 288 287 287 289 290 288 289 290 292 291 291 293 294 293 291
253 253 255 258 260 262 264 265 268 271 273 274 275 276 278 278 278 276 278 279 280 281 283 283 284 284 287 287 286 285 286 287 288 288 289 289 291 292 292 292 292 293 293
253 253 255 258 260 262 265 267 269 271 271 272 273 274 276 279 280 278 279 280 280 281 282 282 284 284 285 287 286 285 286 288 288 289 289 290 291 292 291 290 290 291 293
253 254 256 258 260 262 264 266 267 269 270 271 272 274 276 277 279 279 279 281 281 281 281 282 284 285 285 286 285 285 286 287 289 290 291 291 291 291 290 290 290 291 291
253 254 255 257 259 261 263 265 266 268 269 271 273 275 275 277 279 280 280 282 283 282 282 283 284 284 286 286 287 288 288 288 289 290 291 291 291 291 290 289 289 289 290
255 255 256 258 260 261 263 265 265 267 268 270 272 274 275 276 277 279 280 281 283 283 282 282 282 283 284 285 286 286 287 287 288 290 291 290 289 290 290 290 289 289 289
255 255 256 257 259 261 263 264 265 266 267 269 270 273 274 276 277 279 280 281 282 284 281 281 282 282 284 284 284 284 286 287 287 288 289 289 287 288 288 289 289 289 290
256 255 256 258 259 260 262 264 265 266 267 268 269 272 273 274 277 279 279 280 281 283 282 282 283 283 284 284 282 283 284 286 286 287 288 288 287 287 287 287 287 287 288
256 256 257 259 261 263 264 264 266 267 267 269 270 272 273 274 276 278 280 280 282 282 283 281 281 281 282 283 283 284 285 285 286 287 288 287 287 286 286 286 286 286 286
258 258 259 260 262 262 264 265 267 267 268 269 270 272 274 275 276 278 278 279 281 281 280 280 280 281 282 284 284 284 285 286 287 288 287 286 285 285 285 286 285 286 286
257 258 259 261 262 263 265 266 268 269 270 270 271 272 274 275 276 277 278 278 279 279 279 280 281 282 283 283 283 283 284 286 287 287 287 287 287 287 286 287 288 288 288
Height
5908 5907 5907 5906 5906 5905 5905 5904 5904 5903 5903 5903 5903 5903 5903 5903 5902 5902 5902 5902 5902 5901 5901 5901 5901 5901 5901 5901 5901 5900 5900 5900 5899 5899 5899 5898 5897 5897 5896 5895 5894 5892 5891
5909 5908 5908 5907 5907 5907 5906 5906 5905 5905 5904 5904 5904 5904 5903 5903 5903 5903 5902 5902 5902 5902 5902 5902 5901 5901 5900 5900 5900 5900 5899 5899 5899 5898 5898 5897 5897 5896 5894 5893 5892 5891 5890
5910 5909 5909 5908 5908 5907 5907 5907 5906 5906 5905 5905 5904 5904 5904 5904 5903 5903 5903 5903 5902 5902 5902 5901 5901 5901 5900 5900 5899 5899 5899 5898 5898 5898 5897 5897 5896 5895 5894 5892 5891 5890 5888
5910 5910 5910 5909 5908 5908 5907 5907 5907 5906 5905 5905 5904 5904 5904 5904 5904 5903 5903 5903 5902 5902 5902 5901 5901 5900 5900 5899 5899 5898 5898 5897 5897 5896 5896 5895 5894 5894 5892 5891 5889 5888 5886
5910 5910 5910 5909 5909 5908 5908 5907 5907 5906 5906 5905 5905 5905 5904 5904 5904 5903 5903 5903 5902 5902 5901 5901 5900 5899 5899 5898 5898 5897 5896 5896 5895 5895 5894 5894 5893 5892 5891 5889 5888 5886 5884
5910 5909 5909 5909 5908 5908 5907 5907 5907 5906 5906 5905 5905 5904 5904 5904 5904 5903 5903 5902 5902 5901 5900 5899 5899 5898 5898 5897 5897 5896 5895 5894 5894 5893 5892 5892 5891 5890 5888 5887 5885 5884 5882
5909 5908 5908 5908 5908 5907 5907 5907 5906 5906 5905 5905 5904 5904 5904 5903 5903 5902 5902 5901 5900 5899 5899 5898 5897 5897 5896 5896 5895 5895 5894 5893 5892 5891 5890 5889 5888 5887 5886 5884 5883 5881 5879
5907 5907 5907 5907 5906 5906 5906 5906 5905 5905 5904 5904 5903 5903 5902 5902 5901 5901 5900 5899 5899 5898 5897 5896 5895 5895 5894 5894 5893 5892 5891 5890 5889 5888 5888 5886 5885 5884 5882 5881 5879 5877 5876
5905 5905 5905 5905 5905 5905 5905 5904 5904 5903 5903 5902 5902 5901 5900 5900 5899 5898 5898 5897 5897 5896 5895 5894 5894 5893 5892 5891 5890 5889 5888 5887 5886 5885 5885 5883 5882 5880 5879 5877 5876 5874 5872
5902 5902 5902 5903 5903 5902 5902 5902 5902 5901 5901 5900 5899 5899 5898 5897 5897 5896 5896 5895 5894 5893 5893 5892 5891 5890 5889 5888 5887 5886 5885 5884 5883 5882 5881 5880 5878 5876 5875 5873 5872 5870 5868
5899 5899 5899 5899 5900 5900 5899 5899 5899 5899 5898 5897 5897 5896 5896 5895 5894 5894 5893 5892 5891 5890 5890 5889 5888 5887 5886 5885 5884 5883 5882 5880 5879 5878 5877 5875 5874 5872 5871 5869 5867 5865 5864
5895 5895 5896 5896 5896 5896 5896 5896 5896 5895 5895 5894 5894 5893 5893 5892 5891 5890 5890 5889 5888 5887 5886 5886 5885 5884 5883 5881 5880 5879 5877 5876 5874 5873 5872 5871 5869 5868 5866 5864 5862 5861 5859
5891 5891 5892 5892 5892 5892 5892 5892 5892 5892 5891 5891 5890 5890 5889 5889 5888 5887 5886 5885 5885 5884 5883 5882 5881 5880 5878 5877 5875 5874 5872 5871 5870 5868 5867 5866 5864 5862 5861 5859 5857 5855 5853
5886 5886 5887 5888 5888 5888 5888 5888 5888 5888 5887 5887 5886 5886 5885 5885 5884 5883 5883 5882 5881 5880 5879 5878 5877 5875 5874 5872 5871 5869 5868 5866 5865 5863 5862 5860 5859 5857 5855 5853 5851 5848 5846
5881 5882 5882 5883 5883 5883 5883 5883 5883 5883 5882 5882 5882 5881 5881 5880 5880 5879 5878 5877 5876 5875 5874 5873 5872 5870 5869 5867 5865 5864 5862 5861 5859 5858 5856 5854 5852 5850 5848 5846 5844 5841 5839
5875 5876 5877 5877 5878 5878 5878 5878 5878 5877 5877 5877 5877 5877 5876 5875 5875 5874 5873 5873 5871 5870 5869 5867 5866 5865 5863 5861 5860 5858 5857 5855 5853 5851 5849 5847 5845 5843 5841 5839 5836 5834 5831
5869 5870 5870 5871 5872 5872 5872 5872 5872 5872 5872 5872 5871 5871 5870 5870 5869 5868 5868 5867 5865 5864 5862 5861 5860 5859 5857 5856 5854 5852 5850 5848 5846 5844 5842 5840 5838 5835 5833 5831 5828 5826 5823
5862 5863 5864 5865 5865 5866 5866 5865 5865 5865 5865 5865 5865 5865 5864 5864 5863 5862 5861 5860 5858 5857 5856 5854 5853 5852 5850 5848 5846 5844 5842 5840 5839 5836 5834 5832 5830 5827 5825 5823 5820 5818 5816
5854 5855 5856 5857 5858 5858 5858 5858 5858 5858 5858 5858 5858 5858 5857 5857 5856 5855 5854 5852 5851 5850 5848 5847 5846 5844 5843 5841 5839 5837 5835 5833 5831 5828 5826 5824 5821 5819 5816 5814 5812 5810 5808
5845 5847 5848 5849 5850 5850 5851 5851 5851 5851 5851 5851 5850 5850 5850 5849 5848 5847 5846 5844 5843 5841 5840 5839 5838 5836 5835 5833 5831 5828 5826 5824 5822 5820 5817 5814 5812 5810 5807 5805 5803 5801 5799
5836 5838 5839 5840 5841 5842 5842 5842 5843 5843 5843 5842 5842 5842 5841 5840 5839 5838 5837 5836 5834 5833 5831 5830 5829 5827 5826 5824 5822 5819 5817 5815 5813 5810 5808 5805 5803 5800 5797 5795 5793 5791 5789
5827 5828 5829 5831 5831 5832 5833 5833 5833 5833 5833 5833 5833 5832 5832 5831 5830 5829 5828 5826 5825 5823 5821 5820 5819 5817 5815 5814 5812 5810 5807 5805 5803 5801 5798 5796 5793 5790 5788 5786 5784 5781 5779
5816 5818 5819 5820 5821 5822 5822 5823 5823 5823 5823 5823 5823 5822 5822 5821 5820 5819 5818 5817 5815 5813 5811 5810 5808 5807 5805 5803 5801 5799 5797 5794 5792 5790 5788 5785 5783 5780 5778 5776 5773 5771 5768
5805 5806 5808 5809 5810 5811 5812 5812 5813 5812 5813 5813 5813 5813 5812 5811 5810 5809 5808 5806 5805 5803 5801 5800 5798 5797 5795 5793 5790 5788 5786 5784 5781 5779 5776 5774 5772 5769 5767 5765 5762 5760 5757
5794 5796 5797 5798 5800 5800 5801 5802 5802 5802 5802 5802 5802 5802 5801 5801 5800 5798 5797 5796 5794 5792 5791 5789 5788 5786 5784 5782 5780 5777 5775 5773 5770 5767 5765 5763 5761 5758 5755 5753 5751 5749 5747
5784 5785 5786 5788 5789 5790 5791 5791 5791 5792 5791 5791 5791 5790 5790 5790 5789 5787 5786 5784 5783 5782 5780 5779 5777 5775 5773 5771 5769 5766 5764 5761 5759 5756 5754 5751 5749 5747 5744 5742 5740 5738 5736